Weather History for Pineville, WV

Change the Weather History Date:

Saturday, December 14, 2013

  Actual Average (KBKW) Record (KBKW)
Temperature  
Mean Temperature 38 °F 34 °F  
Max Temperature 44 °F 42 °F 68 °F (1984)
Min Temperature 32 °F 26 °F -11 °F (1898)
Degree Days  
Heating Degree Days 27 31  
Month to date heating degree days 403  
Since 1 July heating degree days 1543  
Cooling Degree Days 0 0  
Month to date cooling degree days 0  
Year to date cooling degree days 557  
Moisture  
Dew Point 37 °F    
Average Humidity 96    
Maximum Humidity 100    
Minimum Humidity 84    
Precipitation  
Precipitation 0.00 in 0.10 in 1.78 in (1922)
Month to date precipitation 1.40  
Year to date precipitation 39.59  
Snow  
Snow 0.00 in - - ()
Month to date snowfall  
Since 1 September snowfall  
Snow Depth -    
Sea Level Pressure  
Sea Level Pressure 30.00 in    
Wind  
Wind Speed - (North)    
Max Wind Speed -    
Max Gust Speed -    
Visibility 8 miles    
Events Snow    
T = Trace of Precipitation, MM = Missing Value Source: NWS Daily Summary

Daily Weather History Graph

Daily Weather History Graph

Search for Another Location

Airport:

Trip Planner

Search our weather history database for the weather conditions in past years. The results will help you decide how hot, cold, wet, or windy it might be!

Date:

Astronomy

Dec. 14, 2013 Rise Set
Actual Time 7:33 AM EST 5:08 PM EST
Civil Twilight 7:04 AM EST 5:38 PM EST
Nautical Twilight 6:31 AM EST 6:10 PM EST
Astronomical Twilight 5:59 AM EST 6:42 PM EST
Moon 3:27 PM EST (12/14) 4:54 AM EST (12/14)
Length of Visible Light 10h 33m
Length of Day
9h 35m
Waxing Gibbous, 93% of the Moon is Illuminated
Dec 14
Waxing Gibbous
Dec 17
Full
Dec 25
Last Quarter
Jan 1
New
Jan 7
First Quarter

Hourly Weather History & Observations

Time (EST) Temp. Dew Point Humidity Pressure Visibility Wind Dir Wind Speed Gust Speed Precip Events Conditions
12:15 AM 32.9 °F 30.9 °F 92% 30.29 in 2.5 mi North - - N/A Snow Light Snow
12:35 AM 33.4 °F 32.0 °F 94% 30.28 in 5.0 mi North - - N/A Snow Light Snow
12:55 AM 32.7 °F 32.0 °F 97% 30.24 in 2.5 mi North - - N/A Snow Light Snow
1:15 AM 34.3 °F 34.0 °F 99% 30.21 in 10.0 mi North - - N/A   Overcast
1:35 AM 34.9 °F 34.5 °F 99% 30.21 in 10.0 mi North - - N/A   Overcast
1:55 AM 34.9 °F 34.7 °F 99% 30.21 in 10.0 mi North - - N/A   Overcast
2:15 AM 34.3 °F 34.3 °F 100% 30.21 in 10.0 mi North - - N/A   Overcast
2:35 AM 34.9 °F 34.9 °F 100% 30.19 in 10.0 mi North - - N/A   Overcast
2:55 AM 35.6 °F 35.6 °F 100% 30.19 in 10.0 mi North - - N/A   Overcast
3:15 AM 35.6 °F 35.6 °F 100% 30.19 in 10.0 mi North - - N/A   Overcast
3:35 AM 34.9 °F 34.9 °F 100% 30.20 in 10.0 mi North - - N/A   Overcast
3:55 AM 34.7 °F 34.7 °F 100% 30.19 in 10.0 mi North - - N/A   Overcast
4:15 AM 34.7 °F 34.7 °F 100% 30.18 in 10.0 mi North - - N/A   Overcast
4:35 AM 34.9 °F 34.9 °F 100% 30.15 in 10.0 mi North - - N/A   Overcast
4:55 AM 36.1 °F 36.1 °F 100% 30.16 in 10.0 mi North - - N/A   Overcast
5:15 AM 35.6 °F 35.6 °F 100% 30.15 in 10.0 mi North - - N/A   Overcast
5:35 AM 37.2 °F 36.0 °F 95% 30.15 in 10.0 mi North - - N/A   Overcast
5:55 AM 36.0 °F 35.1 °F 97% 30.12 in 10.0 mi North - - N/A   Overcast
6:15 AM 35.6 °F 35.2 °F 99% 30.14 in 10.0 mi North - - N/A   Overcast
6:35 AM 35.8 °F 35.8 °F 100% 30.15 in 10.0 mi North - - N/A   Overcast
6:55 AM 35.6 °F 35.4 °F 99% 30.15 in 10.0 mi North - - N/A   Overcast
7:15 AM 35.2 °F 35.2 °F 100% 30.16 in 10.0 mi North - - N/A   Overcast
7:35 AM 35.1 °F 35.1 °F 100% 30.16 in 10.0 mi North - - N/A   Overcast
7:55 AM 34.9 °F 34.9 °F 100% 30.16 in 10.0 mi North - - N/A   Overcast
8:15 AM 35.1 °F 35.1 °F 100% 30.13 in 10.0 mi North - - N/A   Overcast
8:35 AM 35.6 °F 35.6 °F 100% 30.15 in 10.0 mi North - - N/A   Overcast
8:55 AM 35.6 °F 35.6 °F 100% 30.13 in 10.0 mi North - - N/A   Overcast
9:15 AM 37.0 °F 35.6 °F 95% 30.11 in 10.0 mi North - - N/A   Overcast
9:35 AM 36.7 °F 35.6 °F 96% 30.10 in 7.0 mi North - - N/A Snow Light Snow
9:55 AM 36.7 °F 35.6 °F 96% 30.09 in 5.0 mi North - - N/A   Overcast
10:15 AM 36.5 °F 35.8 °F 97% 30.09 in 5.0 mi North - - N/A   Overcast
10:35 AM 36.9 °F 36.7 °F 99% 30.08 in 2.5 mi North - - N/A   Overcast
10:55 AM 39.2 °F 36.5 °F 90% 30.06 in 5.0 mi North - - N/A   Overcast
11:15 AM 39.4 °F 36.7 °F 90% 30.05 in 5.0 mi North - - N/A   Overcast
11:35 AM 39.2 °F 36.9 °F 91% 30.04 in 2.5 mi North - - N/A   Unknown
11:55 AM 38.7 °F 37.0 °F 94% 30.03 in 2.5 mi North - - N/A   Overcast
12:15 PM 38.5 °F 37.2 °F 95% 30.03 in 1.8 mi North - - N/A   Unknown
12:35 PM 38.3 °F 37.4 °F 97% 30.00 in 2.0 mi North - - N/A   Unknown
12:55 PM 38.3 °F 37.4 °F 97% 29.98 in 3.0 mi North - - N/A   Overcast
1:15 PM 38.3 °F 37.4 °F 97% 29.93 in 3.0 mi North - - N/A   Overcast
1:35 PM 40.1 °F 38.8 °F 95% 29.91 in 10.0 mi North - - N/A   Overcast
1:55 PM 42.3 °F 39.2 °F 89% 29.88 in 10.0 mi North - - N/A   Scattered Clouds
2:15 PM 44.1 °F 39.4 °F 84% 29.87 in 10.0 mi North - - N/A   Mostly Cloudy
2:35 PM 42.3 °F 38.8 °F 88% 29.87 in 10.0 mi North - - N/A   Overcast
2:55 PM 43.2 °F 39.6 °F 87% 29.87 in 10.0 mi North - - N/A   Overcast
3:15 PM 44.6 °F 39.9 °F 84% 29.86 in 10.0 mi North - - N/A   Overcast
3:35 PM 44.6 °F 40.1 °F 84% 29.87 in 10.0 mi North - - N/A   Overcast
3:55 PM 44.6 °F 40.1 °F 84% 29.86 in 10.0 mi North - - N/A   Overcast
4:15 PM 44.8 °F 40.3 °F 84% 29.86 in 10.0 mi North - - N/A   Overcast
4:35 PM 44.2 °F 40.1 °F 85% 29.85 in 10.0 mi North - - N/A   Overcast
4:55 PM 43.0 °F 40.3 °F 90% 29.84 in 10.0 mi North - - N/A   Overcast
5:15 PM 43.0 °F 39.6 °F 88% 29.84 in 10.0 mi North - - N/A   Overcast
5:35 PM 39.4 °F 38.5 °F 97% 29.83 in 10.0 mi North - - N/A   Overcast
5:55 PM 39.2 °F 38.5 °F 97% 29.83 in 10.0 mi North - - N/A   Overcast
6:15 PM 39.0 °F 38.5 °F 98% 29.83 in 10.0 mi North - - N/A   Overcast
6:35 PM 38.7 °F 38.5 °F 99% 29.83 in 10.0 mi North - - N/A   Overcast
6:55 PM 38.8 °F 38.8 °F 100% 29.82 in 10.0 mi North - - N/A   Overcast
7:15 PM 38.7 °F 38.7 °F 100% 29.82 in 10.0 mi North - - N/A   Overcast
7:35 PM 39.0 °F 39.0 °F 100% 29.83 in 10.0 mi North - - N/A   Overcast
7:55 PM 38.3 °F 38.3 °F 100% 29.82 in 10.0 mi North - - N/A   Overcast
8:15 PM 38.3 °F 38.3 °F 100% 29.82 in 10.0 mi North - - N/A   Overcast
8:35 PM 37.9 °F 37.9 °F 100% 29.81 in 7.0 mi North - - N/A   Overcast
8:55 PM 38.3 °F 38.3 °F 100% 29.79 in 10.0 mi North - - N/A   Overcast
9:15 PM 38.3 °F 38.3 °F 100% 29.80 in 10.0 mi North - - N/A   Overcast
9:35 PM 38.3 °F 38.3 °F 100% 29.81 in 10.0 mi North - - N/A   Overcast
9:55 PM 38.1 °F 38.1 °F 100% 29.79 in 10.0 mi North - - N/A   Overcast
10:15 PM 37.8 °F 37.8 °F 100% 29.79 in 10.0 mi North - - N/A   Overcast
10:35 PM 37.8 °F 37.8 °F 100% 29.78 in 10.0 mi North - - N/A   Overcast
10:55 PM 38.3 °F 38.3 °F 100% 29.79 in 10.0 mi North - - N/A   Overcast
11:15 PM 38.5 °F 38.5 °F 100% 29.77 in 5.0 mi North - - N/A   Overcast
11:35 PM 38.7 °F 38.7 °F 100% 29.76 in 3.0 mi North - - N/A   Overcast
11:55 PM 38.5 °F 38.5 °F 100% 29.77 in 5.0 mi North - - N/A   Overcast